Flag for U.S.A. Weather past 2 weeks in Bismarck, North Dakota, U.S.A.

Now
75 °F

Scattered clouds.


Feels Like: 78 °F
Forecast: 51 / 75 °F
Wind: No wind

Location: Bismarck Municipal Airport

Current Time: Jul 28, 2014 at 5:53:40 PM

Latest Report: Jul 28, 2014 at 4:52 PM


Visibility: 10 mi

Pressure: 30.28 "Hg

Humidity: 42%

Dew point: 50 °F

Location of BismarckLocation

Historic Weather in Bismarck — Graph

°F

Bismarck temperature yesterday

Maximum temperature yesterday: 70 °F (at 5:52 PM)
Minimum temperature yesterday: 53 °F (at 11:52 PM)
Average temperature yesterday: 63 °F

Past Weeks' High & Low Weather Summary

 TemperatureHumidityPressure
High94 °F (Jul 20, 4:52 PM)100% (Jul 19, 6:52 AM)30.36 "Hg (Jul 19, 6:52 AM)
Low44 °F (Jul 28, 6:52 AM)28% (Jul 25, 2:52 PM)29.62 "Hg (Jul 20, 5:52 AM)
Average69 °F66%29.97 "Hg
* Reported Jul 13 3:52 PM — Jul 28 3:52 PM, Bismarck, Weather by CustomWeather, © 2014

Note: Actual official high and low records may vary slightly from our data, if they occured in-between our weather recording intervals... More about our weather records

Advertising

Bismarck weather history for previous 24 hours

 ConditionsComfort  
Time TempWeatherWind HumidityBarometerVisibility
3:52 PM
Jul 28
75 °FPassing clouds.6 mph39%30.28 "Hg10 mi
2:52 PM75 °FPassing clouds.7 mph40%30.30 "Hg10 mi
1:52 PM73 °FPartly sunny.5 mph43%30.31 "Hg10 mi
12:52 PM71 °FBroken clouds.5 mph49%30.31 "Hg10 mi
11:52 AM68 °FScattered clouds.6 mph57%30.34 "Hg10 mi
10:52 AM68 °FSunny.5 mph55%30.34 "Hg10 mi
9:52 AM64 °FSunny.No wind65%30.34 "Hg10 mi
8:52 AM59 °FSunny.No wind75%30.35 "Hg10 mi
7:52 AM53 °FSunny.3 mph89%30.36 "Hg10 mi
6:52 AM44 °FClear.No wind100%30.36 "Hg9 mi
6:03 AM46 °FClear.No wind100%30.35 "Hg9 mi
5:52 AM46 °FFog.No wind100%30.36 "Hg2 mi
5:00 AM45 °FFog.No wind100%30.33 "Hg1 mi
3:52 AM48 °FClear.3 mph96%30.34 "Hg10 mi
2:52 AM51 °FClear.3 mph96%30.33 "Hg10 mi
1:52 AM49 °FClear.No wind97%30.32 "Hg10 mi
12:52 AM56 °FClear.No wind87%30.31 "Hg10 mi
11:52 PM
Jul 27
53 °FClear.No wind89%30.30 "Hg10 mi
10:52 PM57 °FClear.No wind81%30.30 "Hg10 mi
9:52 PM62 °FSunny.6 mph73%30.28 "Hg10 mi
8:52 PM65 °FSunny.7 mph66%30.27 "Hg10 mi
7:52 PM67 °FScattered clouds.10 mph59%30.27 "Hg10 mi
6:52 PM68 °FPartly sunny.10 mph55%30.27 "Hg10 mi
5:52 PM70 °FBroken clouds.12 mph49%30.27 "Hg10 mi
Weather by CustomWeather, © 2014

See weather overviewHow to use our weather pages